Nellis AFB, NV

9:27 PM PST on December 07, 2019 (GMT -0800)
Nellis Air Force Base

Weather History for KLSV - October, 2019

Change the Weather History Date:

Tuesday, October 29, 2019

  Actual Average Record
Temperature  
Mean Temperature 50 °F -  
Max Temperature 64 °F 71 °F 86 °F (2008)
Min Temperature 35 °F 47 °F 35 °F (2019)
Degree Days  
Heating Degree Days 16    
Moisture  
Dew Point 1 °F    
Average Humidity 13    
Maximum Humidity 21    
Minimum Humidity 8    
Precipitation  
Precipitation 0.01 in - - ()
Sea Level Pressure  
Sea Level Pressure 29.97 in    
Wind  
Wind Speed 15 mph (NNE)    
Max Wind Speed 47 mph    
Max Gust Speed 58 mph    
Visibility 8 miles    
Events      
Averages and records for this station are not official NWS values.
T = Trace of Precipitation, MM = Missing Value Source: NWS Daily Summary

Daily Weather History Graph

Daily Weather History Graph

Search for Another Location

Airport or City:

Astronomy

Oct. 29, 2019 Rise Set
Actual Time 6:59 AM PDT 5:47 PM PDT
Civil Twilight 6:33 AM PDT 6:13 PM PDT
Nautical Twilight 6:03 AM PDT 6:43 PM PDT
Astronomical Twilight 5:33 AM PDT 7:13 PM PDT
Moon 8:36 AM PDT (10/29) 7:16 PM PDT (10/29)
Length of Visible Light 11h 40m
Length of Day
10h 47m
Waxing Crescent, 4% of the Moon is Illuminated
Oct 29
Waxing Crescent
Nov 4
First Quarter
Nov 12
Full
Nov 19
Last Quarter
Nov 26
New

Hourly Weather History & Observations

Time (PDT) Temp. Windchill Dew Point Humidity Pressure Visibility Wind Dir Wind Speed Gust Speed Precip Events Conditions
12:58 AM 37.6 °F - -7.4 °F 15% 29.91 in 10.0 mi SE 1.2 mph - N/A   Clear
1:58 AM 37.6 °F - -6.0 °F 16% 29.90 in 10.0 mi NE 2.3 mph - N/A   Clear
2:58 AM 38.3 °F - -5.4 °F 16% 29.87 in 10.0 mi East 2.3 mph - N/A   Clear
4:58 AM 36.1 °F - -3.3 °F 19% 29.84 in 10.0 mi Calm Calm - N/A   Clear
5:58 AM 35.2 °F - -4.0 °F 19% 29.85 in 10.0 mi East 1.2 mph - N/A   Clear
7:58 AM 42.8 °F 36.6 °F -4.7 °F 14% 29.88 in 10.0 mi NE 11.5 mph - N/A   Clear
8:58 AM 47.5 °F - -2.7 °F 12% 29.88 in 10.0 mi NNE 6.9 mph - N/A   Clear
9:58 AM 48.7 °F - 4.5 °F 16% 29.89 in 10.0 mi Calm Calm - N/A   Clear
10:58 AM 53.2 °F - 3.6 °F 13% 29.88 in 10.0 mi Calm Calm - N/A   Clear
11:58 AM 57.0 °F - 0.9 °F 10% 29.87 in 10.0 mi NNE 9.2 mph - N/A   Clear
12:58 PM 58.8 °F - -0.0 °F 9% 29.86 in 10.0 mi NNE 8.1 mph - N/A   Clear
1:58 PM 61.5 °F - 2.1 °F 9% 29.84 in 10.0 mi NE 6.9 mph - N/A   Clear
2:58 PM 62.6 °F - 2.8 °F 9% 29.84 in 10.0 mi North 5.8 mph - N/A   Clear
3:58 PM 64.0 °F - 1.4 °F 8% 29.84 in 10.0 mi NNE 11.5 mph - N/A   Clear
4:58 PM 63.9 °F - 1.4 °F 8% 29.87 in 10.0 mi NE 8.1 mph - N/A   Clear
5:58 PM 61.2 °F - 4.1 °F 10% 29.91 in 10.0 mi North 13.8 mph - N/A   Clear
6:45 PM 59.0 °F - 5.0 °F 12% 29.94 in 10.0 mi North 33.4 mph 40.3 mph N/A   Squalls
6:47 PM 59.0 °F - 5.0 °F 12% 29.94 in 10.0 mi North 36.8 mph 43.7 mph N/A   Squalls
6:58 PM 57.4 °F - 5.2 °F 12% 29.94 in 10.0 mi North 43.7 mph 52.9 mph N/A   Clear
7:07 PM 57.2 °F - 6.8 °F 13% 29.97 in 8.0 mi North 39.1 mph 49.5 mph N/A   Squalls
7:11 PM 57.2 °F - 6.8 °F 13% 29.97 in 7.0 mi North 40.3 mph 49.5 mph N/A   Squalls
7:27 PM 55.4 °F - 6.8 °F 14% 29.98 in 4.0 mi North 44.9 mph 55.2 mph N/A   Haze
7:52 PM 53.6 °F - 5.0 °F 14% 30.01 in 7.0 mi North 41.4 mph 51.8 mph N/A   Squalls
7:58 PM 53.2 °F - 3.6 °F 13% 30.01 in 7.0 mi North 47.2 mph 55.2 mph N/A   Clear
8:29 PM 51.8 °F - 3.2 °F 14% 30.05 in 5.0 mi North 44.9 mph 57.5 mph N/A   Haze
8:33 PM 50.0 °F - 3.2 °F 15% 30.05 in 5.0 mi North 41.4 mph 51.8 mph N/A   Haze
8:58 PM 49.6 °F - 0.7 °F 13% 30.10 in 4.0 mi North 40.3 mph 47.2 mph 0.01 in   Widespread Dust
9:42 PM 48.2 °F - -0.4 °F 13% 30.16 in 5.0 mi North 43.7 mph 51.8 mph N/A   Widespread Dust
9:58 PM 47.7 °F - -6.3 °F 10% 30.18 in 5.0 mi North 32.2 mph 55.2 mph N/A   Widespread Dust
10:30 PM 46.4 °F 36.4 °F -0.4 °F 14% 30.19 in 5.0 mi North 35.7 mph 43.7 mph N/A   Widespread Dust
10:58 PM 44.8 °F 34.8 °F 2.7 °F 18% 30.22 in 6.0 mi North 31.1 mph 50.6 mph N/A   Widespread Dust
11:04 PM 44.6 °F 34.4 °F 3.2 °F 18% 30.23 in 10.0 mi North 32.2 mph 41.4 mph N/A   Squalls
11:58 PM 42.1 °F 32.6 °F 3.9 °F 21% 30.29 in 10.0 mi North 23.0 mph - N/A   Clear